Station Historical Data
Daily Summary for March 19, 2012 Units:  English    Metric   Both
« Previous Day
Next Day »
Daily Weekly Monthly Yearly Custom
  High: Low: Average:
Temperature: 80.9 °F 60.9 °F 70.5 °F
Dew Point: 61.1 °F 50.5 °F 56.4 °F
Humidity: 81% 45% 62%
Wind Speed: 12.0mph 1.0mph 4.5mph
Wind Gust: 16.0mph - -
Wind- - SE
Pressure: 30.13 in 29.97 in -
Precipitation: 0.00 in    
Historical Graphs
 
 
Tabular Data for March 19, 2012
Time Temperature Dew Point Pressure Wind Wind Speed Wind Gust Humidity Rainfall Rate (Hourly) Conditions
00:00 66.5 °F 51.3 °F 30.08 in SSE 2.0 mph 3.0 mph 58% 0.00 in
00:01 66.5 °F 51.3 °F 30.08 in SSE 2.0 mph 3.0 mph 58% 0.00 in
00:06 66.4 °F 51.2 °F 30.08 in SE 3.0 mph 4.0 mph 58% 0.00 in
00:12 66.3 °F 51.1 °F 30.08 in SE 2.0 mph 3.0 mph 58% 0.00 in
00:17 66.2 °F 51.5 °F 30.08 in ESE 3.0 mph 4.0 mph 59% 0.00 in
00:22 66.5 °F 50.8 °F 30.08 in SE 3.0 mph 4.0 mph 57% 0.00 in
00:27 66.4 °F 51.2 °F 30.08 in SE 3.0 mph 4.0 mph 58% 0.00 in
00:32 66.3 °F 51.1 °F 30.08 in SE 2.0 mph 3.0 mph 58% 0.00 in
00:37 66.5 °F 51.3 °F 30.08 in ESE 3.0 mph 4.0 mph 58% 0.00 in
00:42 66.7 °F 51.0 °F 30.08 in ESE 4.0 mph 4.0 mph 57% 0.00 in
00:47 66.6 °F 50.9 °F 30.08 in SE 4.0 mph 5.0 mph 57% 0.00 in
00:52 66.6 °F 50.9 °F 30.08 in SE 2.0 mph 3.0 mph 57% 0.00 in
00:57 66.7 °F 50.5 °F 30.08 in ESE 3.0 mph 4.0 mph 56% 0.00 in
01:02 66.6 °F 50.9 °F 30.08 in SE 4.0 mph 4.0 mph 57% 0.00 in
01:07 66.3 °F 51.1 °F 30.08 in SE 2.0 mph 4.0 mph 58% 0.00 in
01:12 66.2 °F 51.0 °F 30.08 in ESE 3.0 mph 3.0 mph 58% 0.00 in
01:17 66.3 °F 51.1 °F 30.08 in ESE 3.0 mph 6.0 mph 58% 0.00 in
01:22 66.4 °F 51.2 °F 30.07 in SE 4.0 mph 4.0 mph 58% 0.00 in
01:27 66.3 °F 51.1 °F 30.07 in SE 2.0 mph 4.0 mph 58% 0.00 in
01:32 66.2 °F 51.5 °F 30.07 in SE 3.0 mph 4.0 mph 59% 0.00 in
01:37 66.2 °F 51.5 °F 30.07 in ESE 4.0 mph 4.0 mph 59% 0.00 in
01:42 66.4 °F 51.2 °F 30.07 in SE 4.0 mph 5.0 mph 58% 0.00 in
01:47 66.4 °F 51.7 °F 30.07 in ESE 5.0 mph 5.0 mph 59% 0.00 in
01:52 66.2 °F 51.5 °F 30.07 in SE 5.0 mph 5.0 mph 59% 0.00 in
01:57 66.2 °F 51.9 °F 30.07 in ESE 4.0 mph 5.0 mph 60% 0.00 in
02:02 66.0 °F 51.7 °F 30.07 in SE 4.0 mph 5.0 mph 60% 0.00 in
02:08 66.2 °F 52.4 °F 30.07 in SE 5.0 mph 6.0 mph 61% 0.00 in
02:13 66.3 °F 52.5 °F 30.07 in SSE 6.0 mph 6.0 mph 61% 0.00 in
02:18 66.4 °F 52.6 °F 30.07 in SE 5.0 mph 5.0 mph 61% 0.00 in
02:23 66.5 °F 53.1 °F 30.07 in SE 5.0 mph 7.0 mph 62% 0.00 in
02:28 66.3 °F 52.9 °F 30.07 in ESE 4.0 mph 6.0 mph 62% 0.00 in
02:33 65.9 °F 52.5 °F 30.07 in SE 4.0 mph 5.0 mph 62% 0.00 in
02:38 65.6 °F 52.7 °F 30.07 in ESE 5.0 mph 5.0 mph 63% 0.00 in
02:43 65.4 °F 52.9 °F 30.07 in ESE 4.0 mph 5.0 mph 64% 0.00 in
02:48 65.2 °F 53.2 °F 30.07 in ESE 3.0 mph 3.0 mph 65% 0.00 in
02:53 65.2 °F 53.2 °F 30.07 in ESE 4.0 mph 4.0 mph 65% 0.00 in
02:58 65.5 °F 53.4 °F 30.07 in SE 3.0 mph 5.0 mph 65% 0.00 in
03:03 65.6 °F 53.5 °F 30.07 in SE 4.0 mph 4.0 mph 65% 0.00 in
03:08 65.5 °F 53.4 °F 30.07 in ESE 4.0 mph 4.0 mph 65% 0.00 in
03:13 65.5 °F 53.4 °F 30.07 in SE 3.0 mph 5.0 mph 65% 0.00 in
03:18 65.4 °F 53.8 °F 30.07 in SE 2.0 mph 4.0 mph 66% 0.00 in
03:23 65.2 °F 53.6 °F 30.07 in SSE 2.0 mph 3.0 mph 66% 0.00 in
03:28 64.9 °F 53.7 °F 30.07 in ESE 2.0 mph 2.0 mph 67% 0.00 in
03:33 64.8 °F 54.0 °F 30.07 in ESE 3.0 mph 4.0 mph 68% 0.00 in
03:38 65.0 °F 54.2 °F 30.07 in SE 3.0 mph 4.0 mph 68% 0.00 in
03:43 64.9 °F 54.1 °F 30.07 in SE 4.0 mph 4.0 mph 68% 0.00 in
03:48 64.9 °F 54.5 °F 30.06 in SE 2.0 mph 3.0 mph 69% 0.00 in
03:53 64.8 °F 54.4 °F 30.06 in SE 3.0 mph 4.0 mph 69% 0.00 in
03:58 65.0 °F 54.6 °F 30.06 in SE 3.0 mph 5.0 mph 69% 0.00 in
04:03 65.1 °F 54.7 °F 30.06 in SE 4.0 mph 5.0 mph 69% 0.00 in
04:08 65.3 °F 54.9 °F 30.06 in ESE 4.0 mph 6.0 mph 69% 0.00 in
04:13 65.4 °F 55.0 °F 30.06 in ESE 4.0 mph 5.0 mph 69% 0.00 in
04:18 65.5 °F 55.5 °F 30.06 in ESE 4.0 mph 5.0 mph 70% 0.00 in
04:23 65.5 °F 55.5 °F 30.06 in SE 6.0 mph 6.0 mph 70% 0.00 in
04:28 65.6 °F 55.6 °F 30.06 in SSE 5.0 mph 5.0 mph 70% 0.00 in
04:33 65.6 °F 55.6 °F 30.06 in SE 3.0 mph 5.0 mph 70% 0.00 in
04:39 65.5 °F 55.5 °F 30.06 in SSE 4.0 mph 5.0 mph 70% 0.00 in
04:44 65.4 °F 55.8 °F 30.05 in SE 3.0 mph 5.0 mph 71% 0.00 in
04:49 65.2 °F 55.6 °F 30.05 in SE 3.0 mph 5.0 mph 71% 0.00 in
04:54 65.1 °F 55.5 °F 30.05 in SE 4.0 mph 6.0 mph 71% 0.00 in
04:59 64.9 °F 55.3 °F 30.05 in ESE 5.0 mph 6.0 mph 71% 0.00 in
05:04 64.8 °F 55.6 °F 30.05 in ESE 4.0 mph 5.0 mph 72% 0.00 in
05:09 64.3 °F 55.5 °F 30.05 in ESE 6.0 mph 6.0 mph 73% 0.00 in
05:14 64.4 °F 55.6 °F 30.05 in SE 4.0 mph 6.0 mph 73% 0.00 in
05:19 64.5 °F 55.7 °F 30.05 in SE 3.0 mph 5.0 mph 73% 0.00 in
05:24 64.4 °F 55.6 °F 30.05 in SE 5.0 mph 5.0 mph 73% 0.00 in
05:29 64.4 °F 55.6 °F 30.05 in SE 3.0 mph 6.0 mph 73% 0.00 in
05:34 64.2 °F 55.8 °F 30.05 in SE 4.0 mph 5.0 mph 74% 0.00 in
05:39 64.5 °F 55.7 °F 30.05 in SE 4.0 mph 7.0 mph 73% 0.00 in
05:44 64.6 °F 55.8 °F 30.05 in SE 6.0 mph 7.0 mph 73% 0.00 in
05:49 64.6 °F 55.8 °F 30.05 in SSE 4.0 mph 7.0 mph 73% 0.00 in
05:54 64.2 °F 55.8 °F 30.05 in SE 5.0 mph 7.0 mph 74% 0.00 in
05:59 63.8 °F 55.7 °F 30.05 in SE 4.0 mph 5.0 mph 75% 0.00 in
06:04 63.5 °F 55.8 °F 30.05 in SSE 3.0 mph 5.0 mph 76% 0.00 in
06:09 63.5 °F 55.8 °F 30.05 in SSE 3.0 mph 5.0 mph 76% 0.00 in
06:14 63.6 °F 55.9 °F 30.05 in SSE 2.0 mph 5.0 mph 76% 0.00 in
06:19 63.6 °F 55.9 °F 30.06 in SSE 3.0 mph 5.0 mph 76% 0.00 in
06:24 63.5 °F 55.8 °F 30.06 in SE 2.0 mph 3.0 mph 76% 0.00 in
06:29 63.2 °F 55.9 °F 30.06 in SE 3.0 mph 4.0 mph 77% 0.00 in
06:34 63.1 °F 55.8 °F 30.06 in SE 3.0 mph 5.0 mph 77% 0.00 in
06:39 63.0 °F 55.7 °F 30.05 in ESE 4.0 mph 5.0 mph 77% 0.00 in
06:44 63.4 °F 56.1 °F 30.06 in SE 3.0 mph 6.0 mph 77% 0.00 in
06:49 63.5 °F 55.8 °F 30.06 in SE 3.0 mph 4.0 mph 76% 0.00 in
06:54 63.4 °F 56.1 °F 30.06 in ESE 3.0 mph 4.0 mph 77% 0.00 in
06:59 63.4 °F 56.1 °F 30.06 in ESE 3.0 mph 4.0 mph 77% 0.00 in
07:04 63.4 °F 56.1 °F 30.06 in SE 4.0 mph 4.0 mph 77% 0.00 in
07:09 63.2 °F 55.9 °F 30.07 in SE 2.0 mph 4.0 mph 77% 0.00 in
07:14 63.1 °F 55.8 °F 30.07 in ESE 2.0 mph 4.0 mph 77% 0.00 in
07:19 63.1 °F 55.8 °F 30.07 in SE 3.0 mph 3.0 mph 77% 0.00 in
07:24 62.9 °F 55.6 °F 30.07 in SE 2.0 mph 3.0 mph 77% 0.00 in
07:29 62.5 °F 55.6 °F 30.08 in ESE 2.0 mph 3.0 mph 78% 0.00 in
07:35 62.3 °F 55.4 °F 30.08 in ESE 1.0 mph 2.0 mph 78% 0.00 in
07:40 62.0 °F 55.4 °F 30.08 in ESE 1.0 mph 2.0 mph 79% 0.00 in
07:45 61.6 °F 55.4 °F 30.08 in ESE 2.0 mph 2.0 mph 80% 0.00 in
07:50 61.5 °F 55.3 °F 30.08 in East 2.0 mph 3.0 mph 80% 0.00 in
07:55 61.3 °F 55.1 °F 30.09 in East 2.0 mph 2.0 mph 80% 0.00 in
08:00 61.3 °F 55.1 °F 30.09 in East 2.0 mph 2.0 mph 80% 0.00 in
08:05 61.2 °F 55.0 °F 30.09 in East 2.0 mph 3.0 mph 80% 0.00 in
08:10 61.1 °F 55.2 °F 30.09 in East 2.0 mph 2.0 mph 81% 0.00 in
08:15 61.2 °F 55.0 °F 30.09 in East 2.0 mph 2.0 mph 80% 0.00 in
08:20 61.3 °F 55.1 °F 30.09 in ESE 2.0 mph 2.0 mph 80% 0.00 in
08:25 61.1 °F 54.9 °F 30.09 in East 2.0 mph 3.0 mph 80% 0.00 in
08:30 60.9 °F 55.0 °F 30.09 in East 2.0 mph 2.0 mph 81% 0.00 in
08:35 61.0 °F 54.8 °F 30.10 in ESE 1.0 mph 2.0 mph 80% 0.00 in
08:40 61.1 °F 55.2 °F 30.10 in ESE 1.0 mph 1.0 mph 81% 0.00 in
08:45 61.4 °F 55.2 °F 30.10 in East 1.0 mph 2.0 mph 80% 0.00 in
08:50 61.7 °F 55.5 °F 30.10 in East 1.0 mph 3.0 mph 80% 0.00 in
08:55 61.8 °F 55.6 °F 30.10 in East 2.0 mph 2.0 mph 80% 0.00 in
09:00 61.9 °F 56.0 °F 30.10 in East 2.0 mph 2.0 mph 81% 0.00 in
09:05 62.2 °F 56.0 °F 30.11 in East 1.0 mph 2.0 mph 80% 0.00 in
09:10 62.5 °F 56.6 °F 30.10 in East 1.0 mph 1.0 mph 81% 0.00 in
09:15 62.5 °F 56.2 °F 30.11 in ESE 1.0 mph 2.0 mph 80% 0.00 in
09:20 62.7 °F 56.5 °F 30.11 in East 3.0 mph 3.0 mph 80% 0.00 in
09:25 63.0 °F 57.1 °F 30.11 in East 3.0 mph 3.0 mph 81% 0.00 in
09:30 63.5 °F 57.6 °F 30.11 in ESE 3.0 mph 4.0 mph 81% 0.00 in
09:35 64.1 °F 57.5 °F 30.12 in ESE 3.0 mph 4.0 mph 79% 0.00 in
09:36 64.3 °F 57.7 °F 30.12 in ESE 3.0 mph 4.0 mph 79% 0.00 in
09:41 64.8 °F 57.8 °F 30.12 in East 2.0 mph 3.0 mph 78% 0.00 in
09:46 65.4 °F 58.4 °F 30.11 in ESE 2.0 mph 3.0 mph 78% 0.00 in
09:51 66.1 °F 58.7 °F 30.11 in ESE 3.0 mph 3.0 mph 77% 0.00 in
09:56 66.5 °F 58.7 °F 30.12 in SSE 2.0 mph 4.0 mph 76% 0.00 in
10:01 67.2 °F 59.0 °F 30.12 in SE 3.0 mph 5.0 mph 75% 0.00 in
10:06 67.9 °F 58.5 °F 30.12 in SSE 4.0 mph 4.0 mph 72% 0.00 in
10:11 67.6 °F 58.3 °F 30.12 in ESE 2.0 mph 4.0 mph 72% 0.00 in
10:16 67.5 °F 58.5 °F 30.12 in SE 3.0 mph 3.0 mph 73% 0.00 in
10:21 67.7 °F 58.7 °F 30.12 in South 3.0 mph 4.0 mph 73% 0.00 in
10:26 68.0 °F 59.0 °F 30.13 in SE 2.0 mph 3.0 mph 73% 0.00 in
10:31 68.3 °F 58.5 °F 30.13 in SE 2.0 mph 3.0 mph 71% 0.00 in
10:37 69.2 °F 59.8 °F 30.13 in ESE 4.0 mph 4.0 mph 72% 0.00 in
10:42 69.6 °F 58.6 °F 30.13 in SSE 5.0 mph 7.0 mph 68% 0.00 in
10:47 69.9 °F 58.5 °F 30.13 in SE 3.0 mph 5.0 mph 67% 0.00 in
10:52 70.6 °F 59.1 °F 30.13 in SSW 4.0 mph 5.0 mph 67% 0.00 in
10:57 70.9 °F 58.1 °F 30.13 in SE 5.0 mph 6.0 mph 64% 0.00 in
11:02 71.0 °F 59.1 °F 30.13 in SSW 2.0 mph 5.0 mph 66% 0.00 in
11:07 71.4 °F 59.0 °F 30.13 in South 3.0 mph 5.0 mph 65% 0.00 in
11:12 71.8 °F 59.0 °F 30.12 in SSW 4.0 mph 7.0 mph 64% 0.00 in
11:17 72.5 °F 59.2 °F 30.12 in SSE 4.0 mph 6.0 mph 63% 0.00 in
11:22 72.7 °F 59.8 °F 30.12 in SE 6.0 mph 7.0 mph 64% 0.00 in
11:27 73.2 °F 58.5 °F 30.12 in SE 5.0 mph 8.0 mph 60% 0.00 in
11:32 73.3 °F 58.6 °F 30.12 in South 7.0 mph 8.0 mph 60% 0.00 in
11:37 73.5 °F 59.7 °F 30.12 in South 4.0 mph 6.0 mph 62% 0.00 in
11:43 73.6 °F 58.9 °F 30.12 in South 6.0 mph 8.0 mph 60% 0.00 in
11:48 73.7 °F 58.5 °F 30.12 in SSE 7.0 mph 7.0 mph 59% 0.00 in
11:53 73.9 °F 59.2 °F 30.12 in SSW 5.0 mph 7.0 mph 60% 0.00 in
11:58 74.4 °F 59.6 °F 30.12 in SSW 4.0 mph 6.0 mph 60% 0.00 in
12:03 74.5 °F 61.1 °F 30.12 in SE 9.0 mph 10.0 mph 63% 0.00 in
12:08 74.1 °F 59.3 °F 30.12 in South 7.0 mph 11.0 mph 60% 0.00 in
12:13 74.4 °F 59.2 °F 30.12 in SSE 6.0 mph 10.0 mph 59% 0.00 in
12:18 74.4 °F 57.7 °F 30.12 in SSE 6.0 mph 9.0 mph 56% 0.00 in
12:23 74.3 °F 58.6 °F 30.11 in SSW 1.0 mph 7.0 mph 58% 0.00 in
12:28 74.8 °F 58.1 °F 30.11 in WSW 4.0 mph 6.0 mph 56% 0.00 in
12:33 74.8 °F 58.1 °F 30.11 in SW 5.0 mph 6.0 mph 56% 0.00 in
12:38 74.7 °F 58.5 °F 30.11 in SSW 6.0 mph 7.0 mph 57% 0.00 in
12:43 74.8 °F 58.1 °F 30.11 in SSW 2.0 mph 8.0 mph 56% 0.00 in
12:48 74.8 °F 59.0 °F 30.11 in SW 8.0 mph 8.0 mph 58% 0.00 in
12:53 74.7 °F 58.0 °F 30.11 in SSW 4.0 mph 9.0 mph 56% 0.00 in
12:58 74.8 °F 58.6 °F 30.11 in South 3.0 mph 6.0 mph 57% 0.00 in
13:03 75.0 °F 58.3 °F 30.11 in SSE 4.0 mph 6.0 mph 56% 0.00 in
13:08 74.8 °F 59.5 °F 30.11 in South 6.0 mph 11.0 mph 59% 0.00 in
13:13 74.7 °F 58.5 °F 30.10 in SSE 8.0 mph 11.0 mph 57% 0.00 in
13:18 74.6 °F 57.9 °F 30.10 in South 4.0 mph 6.0 mph 56% 0.00 in
13:23 74.7 °F 58.5 °F 30.10 in SSE 9.0 mph 9.0 mph 57% 0.00 in
13:28 74.4 °F 57.7 °F 30.10 in SSE 9.0 mph 12.0 mph 56% 0.00 in
13:33 74.4 °F 57.7 °F 30.10 in SSW 4.0 mph 7.0 mph 56% 0.00 in
13:38 74.5 °F 58.3 °F 30.09 in SE 5.0 mph 8.0 mph 57% 0.00 in
13:43 74.5 °F 58.3 °F 30.09 in SSE 7.0 mph 7.0 mph 57% 0.00 in
13:48 74.7 °F 57.0 °F 30.09 in SSE 6.0 mph 8.0 mph 54% 0.00 in
13:53 74.8 °F 58.6 °F 30.08 in SW 4.0 mph 6.0 mph 57% 0.00 in
13:58 75.1 °F 58.3 °F 30.08 in ESE 8.0 mph 9.0 mph 56% 0.00 in
14:03 75.1 °F 58.3 °F 30.08 in South 7.0 mph 8.0 mph 56% 0.00 in
14:08 75.6 °F 57.8 °F 30.08 in SSE 7.0 mph 8.0 mph 54% 0.00 in
14:13 75.9 °F 60.1 °F 30.07 in SE 7.0 mph 8.0 mph 58% 0.00 in
14:18 76.6 °F 59.2 °F 30.07 in SE 9.0 mph 10.0 mph 55% 0.00 in
14:24 76.5 °F 59.7 °F 30.07 in SE 10.0 mph 12.0 mph 56% 0.00 in
14:29 76.2 °F 57.8 °F 30.06 in East 9.0 mph 11.0 mph 53% 0.00 in
14:34 75.9 °F 58.1 °F 30.06 in ESE 10.0 mph 13.0 mph 54% 0.00 in
14:39 75.7 °F 58.4 °F 30.06 in ESE 5.0 mph 10.0 mph 55% 0.00 in
14:44 75.5 °F 58.2 °F 30.06 in ESE 6.0 mph 7.0 mph 55% 0.00 in
14:49 75.7 °F 57.4 °F 30.06 in SSE 8.0 mph 10.0 mph 53% 0.00 in
14:54 76.6 °F 57.1 °F 30.05 in ESE 7.0 mph 11.0 mph 51% 0.00 in
14:59 77.4 °F 56.8 °F 30.05 in SSE 6.0 mph 12.0 mph 49% 0.00 in
15:04 78.1 °F 57.4 °F 30.05 in SE 10.0 mph 15.0 mph 49% 0.00 in
15:09 78.5 °F 58.9 °F 30.04 in SE 8.0 mph 11.0 mph 51% 0.00 in
15:14 78.6 °F 58.4 °F 30.04 in SSW 9.0 mph 11.0 mph 50% 0.00 in
15:19 78.2 °F 56.9 °F 30.04 in ESE 5.0 mph 14.0 mph 48% 0.00 in
15:24 78.3 °F 57.0 °F 30.04 in SSE 9.0 mph 14.0 mph 48% 0.00 in
15:29 78.3 °F 58.7 °F 30.03 in SE 6.0 mph 15.0 mph 51% 0.00 in
15:34 78.6 °F 57.9 °F 30.03 in SE 10.0 mph 13.0 mph 49% 0.00 in
15:39 78.4 °F 58.2 °F 30.02 in ESE 9.0 mph 14.0 mph 50% 0.00 in
15:44 78.4 °F 58.2 °F 30.02 in SE 7.0 mph 14.0 mph 50% 0.00 in
15:49 78.2 °F 58.6 °F 30.02 in SE 7.0 mph 11.0 mph 51% 0.00 in
15:54 78.5 °F 58.3 °F 30.01 in ESE 10.0 mph 10.0 mph 50% 0.00 in
15:59 78.8 °F 58.0 °F 30.01 in ESE 9.0 mph 16.0 mph 49% 0.00 in
16:04 78.7 °F 57.4 °F 30.01 in SE 7.0 mph 15.0 mph 48% 0.00 in
16:09 78.8 °F 58.6 °F 30.01 in SE 9.0 mph 10.0 mph 50% 0.00 in
16:14 79.0 °F 57.7 °F 30.01 in South 5.0 mph 9.0 mph 48% 0.00 in
16:19 79.3 °F 57.9 °F 30.00 in SSE 9.0 mph 13.0 mph 48% 0.00 in
16:24 79.2 °F 58.4 °F 30.00 in SSE 8.0 mph 9.0 mph 49% 0.00 in
16:29 79.3 °F 57.9 °F 30.00 in SSE 11.0 mph 11.0 mph 48% 0.00 in
16:34 79.3 °F 57.3 °F 30.00 in South 5.0 mph 11.0 mph 47% 0.00 in
16:39 79.5 °F 59.2 °F 30.00 in SSE 6.0 mph 6.0 mph 50% 0.00 in
16:44 79.9 °F 59.6 °F 30.00 in SSE 7.0 mph 7.0 mph 50% 0.00 in
16:49 80.1 °F 59.2 °F 29.99 in SSE 4.0 mph 7.0 mph 49% 0.00 in
16:54 80.2 °F 59.3 °F 29.99 in ESE 12.0 mph 12.0 mph 49% 0.00 in
17:00 79.6 °F 56.4 °F 29.99 in SE 7.0 mph 11.0 mph 45% 0.00 in
17:05 79.3 °F 56.8 °F 29.99 in SE 6.0 mph 10.0 mph 46% 0.00 in
17:10 79.0 °F 57.7 °F 29.99 in SE 5.0 mph 8.0 mph 48% 0.00 in
17:15 79.0 °F 58.2 °F 29.98 in SE 6.0 mph 6.0 mph 49% 0.00 in
17:20 79.1 °F 58.3 °F 29.99 in SSE 5.0 mph 9.0 mph 49% 0.00 in
17:25 79.4 °F 59.7 °F 29.98 in SE 7.0 mph 7.0 mph 51% 0.00 in
17:30 80.1 °F 58.1 °F 29.98 in SSE 11.0 mph 12.0 mph 47% 0.00 in
17:35 80.7 °F 58.6 °F 29.98 in SSW 12.0 mph 12.0 mph 47% 0.00 in
17:40 80.9 °F 57.6 °F 29.98 in SSW 10.0 mph 12.0 mph 45% 0.00 in
17:45 80.8 °F 57.5 °F 29.98 in SSE 11.0 mph 15.0 mph 45% 0.00 in
17:50 80.5 °F 57.2 °F 29.98 in South 9.0 mph 11.0 mph 45% 0.00 in
17:55 80.2 °F 58.2 °F 29.98 in SSE 11.0 mph 11.0 mph 47% 0.00 in
18:00 79.9 °F 57.3 °F 29.98 in South 10.0 mph 13.0 mph 46% 0.00 in
18:05 79.6 °F 57.6 °F 29.98 in SE 8.0 mph 11.0 mph 47% 0.00 in
18:10 79.3 °F 57.3 °F 29.98 in SSE 4.0 mph 12.0 mph 47% 0.00 in
18:15 79.0 °F 58.2 °F 29.98 in SE 6.0 mph 7.0 mph 49% 0.00 in
18:20 78.8 °F 58.0 °F 29.98 in SSE 3.0 mph 8.0 mph 49% 0.00 in
18:25 78.5 °F 57.8 °F 29.98 in SE 5.0 mph 10.0 mph 49% 0.00 in
18:30 78.2 °F 57.5 °F 29.98 in SE 7.0 mph 7.0 mph 49% 0.00 in
18:35 78.2 °F 56.9 °F 29.98 in SE 7.0 mph 12.0 mph 48% 0.00 in
18:40 78.1 °F 57.4 °F 29.98 in SE 4.0 mph 9.0 mph 49% 0.00 in
18:45 77.9 °F 57.2 °F 29.98 in ESE 5.0 mph 8.0 mph 49% 0.00 in
18:50 77.7 °F 57.6 °F 29.98 in SE 5.0 mph 7.0 mph 50% 0.00 in
18:55 77.6 °F 57.5 °F 29.98 in SE 6.0 mph 8.0 mph 50% 0.00 in
19:00 77.4 °F 56.8 °F 29.98 in SE 6.0 mph 10.0 mph 49% 0.00 in
19:05 77.3 °F 57.8 °F 29.98 in ESE 3.0 mph 6.0 mph 51% 0.00 in
19:10 77.0 °F 58.0 °F 29.98 in SE 4.0 mph 7.0 mph 52% 0.00 in
19:15 77.0 °F 58.0 °F 29.97 in ESE 4.0 mph 5.0 mph 52% 0.00 in
19:20 77.1 °F 58.1 °F 29.97 in SE 5.0 mph 5.0 mph 52% 0.00 in
19:25 77.0 °F 58.0 °F 29.97 in SSE 4.0 mph 7.0 mph 52% 0.00 in
19:30 76.9 °F 57.4 °F 29.97 in SE 7.0 mph 7.0 mph 51% 0.00 in
19:35 76.6 °F 57.7 °F 29.97 in SE 5.0 mph 7.0 mph 52% 0.00 in
19:36 76.6 °F 57.7 °F 29.97 in ESE 4.0 mph 7.0 mph 52% 0.00 in
19:41 76.5 °F 57.6 °F 29.97 in SE 4.0 mph 8.0 mph 52% 0.00 in
19:46 76.3 °F 56.9 °F 29.97 in ESE 9.0 mph 9.0 mph 51% 0.00 in
19:51 76.1 °F 57.2 °F 29.97 in SE 5.0 mph 8.0 mph 52% 0.00 in
19:56 75.8 °F 57.5 °F 29.97 in SE 4.0 mph 5.0 mph 53% 0.00 in
20:01 75.4 °F 57.1 °F 29.97 in SE 3.0 mph 5.0 mph 53% 0.00 in
20:06 75.1 °F 56.8 °F 29.97 in ESE 3.0 mph 5.0 mph 53% 0.00 in
20:11 75.1 °F 57.3 °F 29.97 in SE 4.0 mph 6.0 mph 54% 0.00 in
20:16 74.7 °F 57.0 °F 29.97 in SE 3.0 mph 4.0 mph 54% 0.00 in
20:21 74.5 °F 57.3 °F 29.97 in ESE 3.0 mph 4.0 mph 55% 0.00 in
20:26 74.2 °F 57.0 °F 29.98 in ESE 3.0 mph 4.0 mph 55% 0.00 in
20:31 73.8 °F 57.1 °F 29.98 in ESE 2.0 mph 3.0 mph 56% 0.00 in
20:36 73.7 °F 57.0 °F 29.98 in ESE 2.0 mph 3.0 mph 56% 0.00 in
20:41 73.3 °F 56.7 °F 29.98 in ESE 3.0 mph 3.0 mph 56% 0.00 in
20:46 72.6 °F 57.5 °F 29.98 in ESE 3.0 mph 3.0 mph 59% 0.00 in
20:51 72.2 °F 57.1 °F 29.98 in ESE 3.0 mph 4.0 mph 59% 0.00 in
20:56 72.1 °F 57.0 °F 29.98 in ESE 4.0 mph 4.0 mph 59% 0.00 in
21:01 72.3 °F 57.2 °F 29.98 in ESE 5.0 mph 7.0 mph 59% 0.00 in
21:06 72.4 °F 57.3 °F 29.98 in ESE 6.0 mph 6.0 mph 59% 0.00 in
21:11 72.5 °F 57.4 °F 29.98 in SE 3.0 mph 5.0 mph 59% 0.00 in
21:16 72.4 °F 57.3 °F 29.98 in ESE 3.0 mph 5.0 mph 59% 0.00 in
21:21 72.4 °F 57.3 °F 29.97 in SE 4.0 mph 7.0 mph 59% 0.00 in
21:26 72.4 °F 57.3 °F 29.97 in SE 3.0 mph 8.0 mph 59% 0.00 in
21:31 72.3 °F 56.7 °F 29.97 in SE 3.0 mph 7.0 mph 58% 0.00 in
21:36 72.3 °F 56.7 °F 29.98 in ESE 7.0 mph 7.0 mph 58% 0.00 in
21:41 72.6 °F 57.0 °F 29.98 in SE 4.0 mph 6.0 mph 58% 0.00 in
21:46 72.6 °F 56.5 °F 29.98 in SE 4.0 mph 8.0 mph 57% 0.00 in
21:51 72.5 °F 56.4 °F 29.98 in SE 6.0 mph 7.0 mph 57% 0.00 in
21:56 72.3 °F 56.7 °F 29.98 in ESE 4.0 mph 6.0 mph 58% 0.00 in
22:01 72.1 °F 56.5 °F 29.98 in ESE 4.0 mph 7.0 mph 58% 0.00 in
22:06 71.9 °F 56.3 °F 29.98 in SE 4.0 mph 6.0 mph 58% 0.00 in
22:11 71.9 °F 56.3 °F 29.98 in SE 3.0 mph 8.0 mph 58% 0.00 in
22:17 71.9 °F 56.3 °F 29.98 in SE 3.0 mph 7.0 mph 58% 0.00 in
22:22 71.8 °F 56.2 °F 29.98 in SE 4.0 mph 7.0 mph 58% 0.00 in
22:27 71.8 °F 56.2 °F 29.98 in SE 5.0 mph 7.0 mph 58% 0.00 in
22:32 71.5 °F 56.0 °F 29.98 in SE 3.0 mph 6.0 mph 58% 0.00 in
22:37 71.0 °F 56.4 °F 29.98 in ESE 4.0 mph 5.0 mph 60% 0.00 in
22:42 70.9 °F 56.3 °F 29.98 in SE 4.0 mph 6.0 mph 60% 0.00 in
22:47 70.9 °F 56.3 °F 29.98 in SE 6.0 mph 7.0 mph 60% 0.00 in
22:52 71.1 °F 56.5 °F 29.98 in ESE 4.0 mph 7.0 mph 60% 0.00 in
22:57 70.9 °F 56.3 °F 29.98 in SE 4.0 mph 7.0 mph 60% 0.00 in
23:02 70.8 °F 56.2 °F 29.98 in SE 4.0 mph 8.0 mph 60% 0.00 in
23:07 71.0 °F 56.4 °F 29.98 in SE 6.0 mph 8.0 mph 60% 0.00 in
23:12 71.1 °F 56.5 °F 29.98 in SE 5.0 mph 6.0 mph 60% 0.00 in
23:17 71.2 °F 56.2 °F 29.99 in SE 5.0 mph 8.0 mph 59% 0.00 in
23:22 71.1 °F 56.5 °F 29.99 in SSE 5.0 mph 6.0 mph 60% 0.00 in
23:27 70.9 °F 56.3 °F 29.99 in SSE 4.0 mph 10.0 mph 60% 0.00 in
23:32 70.7 °F 56.6 °F 29.99 in SE 4.0 mph 7.0 mph 61% 0.00 in
23:37 70.5 °F 56.4 °F 29.99 in SSE 5.0 mph 8.0 mph 61% 0.00 in
23:42 70.5 °F 56.4 °F 29.99 in SE 5.0 mph 7.0 mph 61% 0.00 in
23:47 70.4 °F 56.3 °F 29.99 in SE 4.0 mph 6.0 mph 61% 0.00 in
23:52 70.5 °F 56.4 °F 29.99 in SE 5.0 mph 8.0 mph 61% 0.00 in
23:57 70.4 °F 56.3 °F 29.99 in SE 5.0 mph 7.0 mph 61% 0.00 in
Compliments of Weather Underground